Terminal Aerodrome Forecast
Issued by NWS

Home | Current Version | Previous Version | Text Only | Print | Product List | Glossary On
Versions: 1 2 3 4 5 6 7 8 9 10 11 12 13
000
FTUS44 KLIX 031121
TAFMSY
TAF
KMSY 031121Z 0312/0412 00000KT P6SM FEW020 BKN160 OVC200
     FM031430 12007KT P6SM BKN045
     FM031700 14008KT P6SM VCTS BKN035CB
      TEMPO 0318/0322 4SM -TSRA BKN030CB
     FM040100 VRB05KT P6SM FEW040 SCT110 BKN250=

USA.gov is the U.S. government's official web portal to all federal, state and local government web resources and services.